sat.trackr.live / text

‹ back to catalog

ONEWEB-0039

NORAD 45146 · 2020-008R

PAYLOAD ACTIVE UNKNOWN

§ Identity

Operator
Country
UK
Launch date
2020-02-06
Launch site
TYMSC
Launch vehicle
Mass (kg)
RCS (m²)

Purposes: comms

External: N2YO · Heavens-Above · Gunter

§ Orbital elements

Epoch: 2026-05-25T03:34:26.649120Z

Period
109.89 min
Inclination
87.8857°
Eccentricity
0.0002313
Mean motion
13.10375755 rev/d
Perigee alt
1,219.9 km
Apogee alt
1,223.5 km
Semi-major
7,599.8 km
B*
1.1673e-3
RAAN
40.8541°
Arg perigee
74.9473°
Mean anomaly
285.1910°
Rev number
30,514

§ Raw data

ONEWEB-00391 45146U 20008R   26145.14891955  .00000420  00000+0  11673-2 0  99952 45146  87.8857  40.8541 0002313  74.9473 285.1910 13.10375755305146

JSON: /api/v1/satellites/45146 · /tle

For live sub-satellite position, see the globe view (requires WebGL).

§ Visibility from observer

Set your observer location to see the next 7 days of passes ≥ 10°. The values pass through the URL so the page stays shareable.

No JS? Fill the form by hand. The geolocation button needs JavaScript.